Torna al catalogo

COSMOS 1428

AttivoMilitarePO
NORAD 13757·PAYLOAD·🇷🇺 Russia

Lanciato Jan 12, 1983 da Plesetsk Cosmodrome

Loading…

Prossimi Passaggi (prossime 24 ore)

TLE

AggiornatoSource: Space-Track

Epoca: Sep 14, 2026, 23:33 UTC

1 13757U 83001A   26257.98183323  .00000056  00000-0  41132-4 0  9990
2 13757  82.9158 334.7024 0034378 353.9632 187.9894 13.77095244194054

Traccia COSMOS 1428 in tempo reale con AllMySat

Download on the App Store